Location: Unspecified
(0.0000°N, 0.0000°E)
Time: 06:00:13
(UTC+00:00)

X-37B - Pass Details

Date: 05 August 2020
Orbit: 379 x 395 km, 45.0° (Epoch: 12 August)

Event Time Altitude Azimuth Distance (km) Brightness Sun altitude
Rises 18:46:45 0° 255° (WSW) 2,234 5.5 -9.8°
Reaches altitude 10° 18:49:47 10° 287° (WNW) 1,382 5.0 -10.5°
Maximum altitude 18:51:07 12° 313° (NW) 1,259 4.2 -10.8°
Drops below altitude 10° 18:52:27 10° 339° (NNW) 1,381 3.9 -11.1°
Sets 18:55:29 0° 12° (NNE) 2,231 4.5 -11.9°
